Device,Serial number,Date and time of the measurement,Temperature [°C],Humidity [%],Pressure [hPa],Event
Test,E20100010090,2016-09-11 00:00:00,29.6,0,0.0,""
Test,E20100010090,2016-09-11 00:03:00,29.6,0,0.0,""
Test,E20100010090,2016-09-11 00:06:00,29.6,0,0.0,""
Test,E20100010090,2016-09-11 00:09:00,29.6,0,0.0,""
Test,E20100010090,2016-09-11 00:12:00,29.6,0,0.0,""
Test,E20100010090,2016-09-11 00:15:00,29.6,0,0.0,""
Test,E20100010090,2016-09-11 00:18:00,29.6,0,0.0,""
Test,E20100010090,2016-09-11 00:21:00,29.6,0,0.0,""
Test,E20100010090,2016-09-11 00:24:00,29.6,0,0.0,""
Test,E20100010090,2016-09-11 00:27:00,29.6,0,0.0,""
Test,E20100010090,2016-09-11 00:30:00,29.5,0,0.0,""
Test,E20100010090,2016-09-11 00:33:00,29.5,0,0.0,""
Test,E20100010090,2016-09-11 00:36:00,29.5,0,0.0,""
Test,E20100010090,2016-09-11 00:39:00,29.6,0,0.0,""
Test,E20100010090,2016-09-11 00:42:00,29.5,0,0.0,""
Test,E20100010090,2016-09-11 00:45:00,29.4,0,0.0,""
Test,E20100010090,2016-09-11 00:48:00,29.5,0,0.0,""
Test,E20100010090,2016-09-11 00:51:00,29.4,0,0.0,""
Test,E20100010090,2016-09-11 00:54:00,29.5,0,0.0,""
Test,E20100010090,2016-09-11 00:57:00,29.4,0,0.0,""
Test,E20100010090,2016-09-11 01:00:00,29.4,0,0.0,""
Test,E20100010090,2016-09-11 01:03:00,29.4,0,0.0,""
Test,E20100010090,2016-09-11 01:06:00,29.5,0,0.0,""
Test,E20100010090,2016-09-11 01:09:00,29.4,0,0.0,""
Test,E20100010090,2016-09-11 01:12:00,29.4,0,0.0,""
Test,E20100010090,2016-09-11 01:15:00,29.4,0,0.0,""
Test,E20100010090,2016-09-11 01:18:00,29.4,0,0.0,""
Test,E20100010090,2016-09-11 01:21:00,29.4,0,0.0,""
Test,E20100010090,2016-09-11 01:24:00,29.4,0,0.0,""
Test,E20100010090,2016-09-11 01:27:00,29.4,0,0.0,""
Test,E20100010090,2016-09-11 01:30:00,29.4,0,0.0,""
Test,E20100010090,2016-09-11 01:33:00,29.4,0,0.0,""
Test,E20100010090,2016-09-11 01:36:00,29.4,0,0.0,""
Test,E20100010090,2016-09-11 01:39:00,29.4,0,0.0,""
Test,E20100010090,2016-09-11 01:42:00,29.4,0,0.0,""
Test,E20100010090,2016-09-11 01:45:00,29.4,0,0.0,""
Test,E20100010090,2016-09-11 01:48:00,29.3,0,0.0,""
Test,E20100010090,2016-09-11 01:51:00,29.4,0,0.0,""
Test,E20100010090,2016-09-11 01:54:00,29.3,0,0.0,""
Test,E20100010090,2016-09-11 01:57:00,29.3,0,0.0,""
Test,E20100010090,2016-09-11 02:00:00,29.4,0,0.0,""
Test,E20100010090,2016-09-11 02:03:00,29.4,0,0.0,""
Test,E20100010090,2016-09-11 02:06:00,29.3,0,0.0,""
Test,E20100010090,2016-09-11 02:09:00,29.3,0,0.0,""
Test,E20100010090,2016-09-11 02:12:00,29.3,0,0.0,""
Test,E20100010090,2016-09-11 02:15:00,29.3,0,0.0,""
Test,E20100010090,2016-09-11 02:18:00,29.3,0,0.0,""
Test,E20100010090,2016-09-11 02:21:00,29.3,0,0.0,""
Test,E20100010090,2016-09-11 02:24:00,29.3,0,0.0,""
Test,E20100010090,2016-09-11 02:27:00,29.3,0,0.0,""
Test,E20100010090,2016-09-11 02:30:00,29.3,0,0.0,""
Test,E20100010090,2016-09-11 02:33:00,29.3,0,0.0,""
Test,E20100010090,2016-09-11 02:36:00,29.3,0,0.0,""
Test,E20100010090,2016-09-11 02:39:00,29.3,0,0.0,""
Test,E20100010090,2016-09-11 02:42:00,29.2,0,0.0,""
Test,E20100010090,2016-09-11 02:45:00,29.3,0,0.0,""
Test,E20100010090,2016-09-11 02:48:00,29.3,0,0.0,""
Test,E20100010090,2016-09-11 02:51:00,29.2,0,0.0,""
Test,E20100010090,2016-09-11 02:54:00,29.3,0,0.0,""
Test,E20100010090,2016-09-11 02:57:00,29.3,0,0.0,""
Test,E20100010090,2016-09-11 03:00:00,29.2,0,0.0,""
Test,E20100010090,2016-09-11 03:03:00,29.2,0,0.0,""
Test,E20100010090,2016-09-11 03:06:00,29.2,0,0.0,""
Test,E20100010090,2016-09-11 03:09:00,29.1,0,0.0,""
Test,E20100010090,2016-09-11 03:12:00,29.1,0,0.0,""
Test,E20100010090,2016-09-11 03:15:00,29.1,0,0.0,""
Test,E20100010090,2016-09-11 03:18:00,29.1,0,0.0,""
Test,E20100010090,2016-09-11 03:21:00,29.2,0,0.0,""
Test,E20100010090,2016-09-11 03:24:00,29.1,0,0.0,""
Test,E20100010090,2016-09-11 03:27:00,29.1,0,0.0,""
Test,E20100010090,2016-09-11 03:30:00,29.1,0,0.0,""
Test,E20100010090,2016-09-11 03:33:00,29.1,0,0.0,""
Test,E20100010090,2016-09-11 03:36:00,29.1,0,0.0,""
Test,E20100010090,2016-09-11 03:39:00,29.1,0,0.0,""
Test,E20100010090,2016-09-11 03:42:00,29.1,0,0.0,""
Test,E20100010090,2016-09-11 03:45:00,29.1,0,0.0,""
Test,E20100010090,2016-09-11 03:48:00,29.1,0,0.0,""
Test,E20100010090,2016-09-11 03:51:00,29.1,0,0.0,""
Test,E20100010090,2016-09-11 03:54:00,29.1,0,0.0,""
Test,E20100010090,2016-09-11 03:57:00,29.1,0,0.0,""
Test,E20100010090,2016-09-11 04:00:00,29.1,0,0.0,""
Test,E20100010090,2016-09-11 04:03:00,29.1,0,0.0,""
Test,E20100010090,2016-09-11 04:06:00,29.0,0,0.0,""
Test,E20100010090,2016-09-11 04:09:00,29.0,0,0.0,""
Test,E20100010090,2016-09-11 04:12:00,29.0,0,0.0,""
Test,E20100010090,2016-09-11 04:15:00,29.1,0,0.0,""
Test,E20100010090,2016-09-11 04:18:00,29.0,0,0.0,""
Test,E20100010090,2016-09-11 04:21:00,29.0,0,0.0,""
Test,E20100010090,2016-09-11 04:24:00,29.0,0,0.0,""
Test,E20100010090,2016-09-11 04:27:00,29.0,0,0.0,""
Test,E20100010090,2016-09-11 04:30:00,29.0,0,0.0,""
Test,E20100010090,2016-09-11 04:33:00,28.9,0,0.0,""
Test,E20100010090,2016-09-11 04:36:00,28.9,0,0.0,""
Test,E20100010090,2016-09-11 04:39:00,28.9,0,0.0,""
Test,E20100010090,2016-09-11 04:42:00,28.9,0,0.0,""
Test,E20100010090,2016-09-11 04:45:00,29.0,0,0.0,""
Test,E20100010090,2016-09-11 04:48:00,28.9,0,0.0,""
Test,E20100010090,2016-09-11 04:51:00,28.9,0,0.0,""
Test,E20100010090,2016-09-11 04:54:00,28.9,0,0.0,""
Test,E20100010090,2016-09-11 04:57:00,28.9,0,0.0,""
Test,E20100010090,2016-09-11 05:00:00,28.9,0,0.0,""
Test,E20100010090,2016-09-11 05:03:00,28.9,0,0.0,""
Test,E20100010090,2016-09-11 05:06:00,28.9,0,0.0,""
Test,E20100010090,2016-09-11 05:09:00,28.9,0,0.0,""
Test,E20100010090,2016-09-11 05:12:00,28.9,0,0.0,""
Test,E20100010090,2016-09-11 05:15:00,28.9,0,0.0,""
Test,E20100010090,2016-09-11 05:18:00,28.9,0,0.0,""
Test,E20100010090,2016-09-11 05:21:00,28.8,0,0.0,""
Test,E20100010090,2016-09-11 05:24:00,28.8,0,0.0,""
Test,E20100010090,2016-09-11 05:27:00,28.9,0,0.0,""
Test,E20100010090,2016-09-11 05:30:00,28.8,0,0.0,""
Test,E20100010090,2016-09-11 05:33:00,28.9,0,0.0,""
Test,E20100010090,2016-09-11 05:36:00,28.9,0,0.0,""
Test,E20100010090,2016-09-11 05:39:00,28.8,0,0.0,""
Test,E20100010090,2016-09-11 05:42:00,28.8,0,0.0,""
Test,E20100010090,2016-09-11 05:45:00,28.8,0,0.0,""
Test,E20100010090,2016-09-11 05:48:00,28.8,0,0.0,""
Test,E20100010090,2016-09-11 05:51:00,28.8,0,0.0,""
Test,E20100010090,2016-09-11 05:54:00,28.8,0,0.0,""
Test,E20100010090,2016-09-11 05:57:00,28.8,0,0.0,""
Test,E20100010090,2016-09-11 06:00:00,28.8,0,0.0,""
Test,E20100010090,2016-09-11 06:03:00,28.8,0,0.0,""
Test,E20100010090,2016-09-11 06:06:00,28.8,0,0.0,""
Test,E20100010090,2016-09-11 06:09:00,28.8,0,0.0,""
Test,E20100010090,2016-09-11 06:12:00,28.8,0,0.0,""
Test,E20100010090,2016-09-11 06:15:00,28.8,0,0.0,""
Test,E20100010090,2016-09-11 06:18:00,28.8,0,0.0,""
Test,E20100010090,2016-09-11 06:21:00,28.7,0,0.0,""
Test,E20100010090,2016-09-11 06:24:00,28.7,0,0.0,""
Test,E20100010090,2016-09-11 06:27:00,28.7,0,0.0,""
Test,E20100010090,2016-09-11 06:30:00,28.7,0,0.0,""
Test,E20100010090,2016-09-11 06:33:00,28.7,0,0.0,""
Test,E20100010090,2016-09-11 06:36:00,28.7,0,0.0,""
Test,E20100010090,2016-09-11 06:39:00,28.7,0,0.0,""
Test,E20100010090,2016-09-11 06:42:00,28.7,0,0.0,""
Test,E20100010090,2016-09-11 06:45:00,28.7,0,0.0,""
Test,E20100010090,2016-09-11 06:48:00,28.7,0,0.0,""
Test,E20100010090,2016-09-11 06:51:00,28.7,0,0.0,""
Test,E20100010090,2016-09-11 06:54:00,28.7,0,0.0,""
Test,E20100010090,2016-09-11 06:57:00,28.6,0,0.0,""
Test,E20100010090,2016-09-11 07:00:00,28.6,0,0.0,""
Test,E20100010090,2016-09-11 07:03:00,28.7,0,0.0,""
Test,E20100010090,2016-09-11 07:06:00,28.6,0,0.0,""
Test,E20100010090,2016-09-11 07:09:00,28.7,0,0.0,""
Test,E20100010090,2016-09-11 07:12:00,28.6,0,0.0,""
Test,E20100010090,2016-09-11 07:15:00,28.6,0,0.0,""
Test,E20100010090,2016-09-11 07:18:00,28.6,0,0.0,""
Test,E20100010090,2016-09-11 07:21:00,28.6,0,0.0,""
Test,E20100010090,2016-09-11 07:24:00,28.6,0,0.0,""
Test,E20100010090,2016-09-11 07:27:00,28.6,0,0.0,""
Test,E20100010090,2016-09-11 07:30:00,28.6,0,0.0,""
Test,E20100010090,2016-09-11 07:33:00,28.6,0,0.0,""
Test,E20100010090,2016-09-11 07:36:00,28.6,0,0.0,""
Test,E20100010090,2016-09-11 07:39:00,28.6,0,0.0,""
Test,E20100010090,2016-09-11 07:42:00,28.6,0,0.0,""
Test,E20100010090,2016-09-11 07:45:00,28.7,0,0.0,""
Test,E20100010090,2016-09-11 07:48:00,28.6,0,0.0,""
Test,E20100010090,2016-09-11 07:51:00,28.6,0,0.0,""
Test,E20100010090,2016-09-11 07:54:00,28.6,0,0.0,""
Test,E20100010090,2016-09-11 07:57:00,28.7,0,0.0,""
Test,E20100010090,2016-09-11 08:00:00,28.7,0,0.0,""
Test,E20100010090,2016-09-11 08:06:00,28.7,0,0.0,""
Test,E20100010090,2016-09-11 08:09:00,28.7,0,0.0,""
Test,E20100010090,2016-09-11 08:12:00,28.7,0,0.0,""
Test,E20100010090,2016-09-11 08:15:00,28.8,0,0.0,""
Test,E20100010090,2016-09-11 08:18:00,28.8,0,0.0,""
Test,E20100010090,2016-09-11 08:21:00,28.8,0,0.0,""
Test,E20100010090,2016-09-11 08:24:00,28.8,0,0.0,""
Test,E20100010090,2016-09-11 08:27:00,28.8,0,0.0,""
Test,E20100010090,2016-09-11 08:30:00,28.8,0,0.0,""
Test,E20100010090,2016-09-11 08:33:00,28.9,0,0.0,""
Test,E20100010090,2016-09-11 08:36:00,28.9,0,0.0,""
Test,E20100010090,2016-09-11 08:39:00,28.9,0,0.0,""
Test,E20100010090,2016-09-11 08:42:00,28.9,0,0.0,""
Test,E20100010090,2016-09-11 08:45:00,28.9,0,0.0,""
Test,E20100010090,2016-09-11 08:48:00,29.0,0,0.0,""
Test,E20100010090,2016-09-11 08:51:00,28.9,0,0.0,""
Test,E20100010090,2016-09-11 08:54:00,29.1,0,0.0,""
Test,E20100010090,2016-09-11 08:57:00,29.1,0,0.0,""
Test,E20100010090,2016-09-11 09:00:00,29.1,0,0.0,""
Test,E20100010090,2016-09-11 09:03:00,29.1,0,0.0,""
Test,E20100010090,2016-09-11 09:06:00,29.1,0,0.0,""
Test,E20100010090,2016-09-11 09:09:00,29.2,0,0.0,""
Test,E20100010090,2016-09-11 09:12:00,29.3,0,0.0,""
Test,E20100010090,2016-09-11 09:15:00,29.3,0,0.0,""
Test,E20100010090,2016-09-11 09:18:00,29.3,0,0.0,""
Test,E20100010090,2016-09-11 09:21:00,29.4,0,0.0,""
Test,E20100010090,2016-09-11 09:24:00,29.3,0,0.0,""
Test,E20100010090,2016-09-11 09:27:00,29.4,0,0.0,""
Test,E20100010090,2016-09-11 09:30:00,29.4,0,0.0,""
Test,E20100010090,2016-09-11 09:33:00,29.5,0,0.0,""
Test,E20100010090,2016-09-11 09:36:00,29.5,0,0.0,""
Test,E20100010090,2016-09-11 09:39:00,29.5,0,0.0,""
Test,E20100010090,2016-09-11 09:42:00,29.6,0,0.0,""
Test,E20100010090,2016-09-11 09:45:00,29.6,0,0.0,""
Test,E20100010090,2016-09-11 09:48:00,29.6,0,0.0,""
Test,E20100010090,2016-09-11 09:51:00,29.7,0,0.0,""
Test,E20100010090,2016-09-11 09:54:00,29.7,0,0.0,""
Test,E20100010090,2016-09-11 09:57:00,29.7,0,0.0,""
Test,E20100010090,2016-09-11 10:00:00,29.8,0,0.0,""
Test,E20100010090,2016-09-11 10:03:00,29.8,0,0.0,""
Test,E20100010090,2016-09-11 10:06:00,29.8,0,0.0,""
Test,E20100010090,2016-09-11 10:09:00,29.9,0,0.0,""
Test,E20100010090,2016-09-11 10:12:00,29.9,0,0.0,""
Test,E20100010090,2016-09-11 10:15:00,29.9,0,0.0,""
Test,E20100010090,2016-09-11 10:18:00,29.9,0,0.0,""
Test,E20100010090,2016-09-11 10:21:00,30.0,0,0.0,""
Test,E20100010090,2016-09-11 10:24:00,30.1,0,0.0,Upper temperature threshold (30.0 C degrees) has ben violated. Current temperature is 30.06 C degrees.
Test,E20100010090,2016-09-11 10:27:00,30.1,0,0.0,""
Test,E20100010090,2016-09-11 10:30:00,30.1,0,0.0,""
Test,E20100010090,2016-09-11 10:33:00,30.1,0,0.0,""
Test,E20100010090,2016-09-11 10:36:00,30.3,0,0.0,""
Test,E20100010090,2016-09-11 10:39:00,30.3,0,0.0,""
Test,E20100010090,2016-09-11 10:42:00,30.3,0,0.0,""
Test,E20100010090,2016-09-11 10:45:00,30.4,0,0.0,""
Test,E20100010090,2016-09-11 10:48:00,30.4,0,0.0,""
Test,E20100010090,2016-09-11 10:51:00,30.4,0,0.0,""
Test,E20100010090,2016-09-11 10:54:00,30.4,0,0.0,""
Test,E20100010090,2016-09-11 10:57:00,30.5,0,0.0,""
Test,E20100010090,2016-09-11 11:00:00,30.5,0,0.0,""
Test,E20100010090,2016-09-11 11:03:00,30.6,0,0.0,""
Test,E20100010090,2016-09-11 11:06:00,30.6,0,0.0,""
Test,E20100010090,2016-09-11 11:09:00,30.6,0,0.0,""
Test,E20100010090,2016-09-11 11:12:00,30.7,0,0.0,""
Test,E20100010090,2016-09-11 11:15:00,30.8,0,0.0,""
Test,E20100010090,2016-09-11 11:18:00,30.8,0,0.0,""
Test,E20100010090,2016-09-11 11:21:00,30.8,0,0.0,""
Test,E20100010090,2016-09-11 11:24:00,30.8,0,0.0,""
Test,E20100010090,2016-09-11 11:27:00,30.9,0,0.0,""
Test,E20100010090,2016-09-11 11:30:00,30.9,0,0.0,""
Test,E20100010090,2016-09-11 11:33:00,30.9,0,0.0,""
Test,E20100010090,2016-09-11 11:36:00,31.0,0,0.0,""
Test,E20100010090,2016-09-11 11:39:00,31.1,0,0.0,""
Test,E20100010090,2016-09-11 11:42:00,31.1,0,0.0,""
Test,E20100010090,2016-09-11 11:45:00,31.1,0,0.0,""
Test,E20100010090,2016-09-11 11:48:00,31.1,0,0.0,""
Test,E20100010090,2016-09-11 11:51:00,31.2,0,0.0,""
Test,E20100010090,2016-09-11 11:54:00,31.2,0,0.0,""
Test,E20100010090,2016-09-11 11:57:00,31.3,0,0.0,""
Test,E20100010090,2016-09-11 12:00:00,31.3,0,0.0,""
Test,E20100010090,2016-09-11 12:03:00,31.3,0,0.0,""
Test,E20100010090,2016-09-11 12:06:00,31.4,0,0.0,""
Test,E20100010090,2016-09-11 12:09:00,31.4,0,0.0,""
Test,E20100010090,2016-09-11 12:12:00,31.4,0,0.0,""
Test,E20100010090,2016-09-11 12:15:00,31.4,0,0.0,""
Test,E20100010090,2016-09-11 12:18:00,31.5,0,0.0,""
Test,E20100010090,2016-09-11 12:21:00,31.6,0,0.0,""
Test,E20100010090,2016-09-11 12:24:00,31.6,0,0.0,""
Test,E20100010090,2016-09-11 12:27:00,31.6,0,0.0,""
Test,E20100010090,2016-09-11 12:30:00,31.6,0,0.0,""
Test,E20100010090,2016-09-11 12:33:00,31.6,0,0.0,""
Test,E20100010090,2016-09-11 12:36:00,31.7,0,0.0,""
Test,E20100010090,2016-09-11 12:39:00,31.7,0,0.0,""
Test,E20100010090,2016-09-11 12:42:00,31.7,0,0.0,""
Test,E20100010090,2016-09-11 12:45:00,31.8,0,0.0,""
Test,E20100010090,2016-09-11 12:48:00,31.8,0,0.0,""
Test,E20100010090,2016-09-11 12:51:00,31.9,0,0.0,""
Test,E20100010090,2016-09-11 12:54:00,31.8,0,0.0,""
Test,E20100010090,2016-09-11 12:57:00,31.9,0,0.0,""
Test,E20100010090,2016-09-11 13:00:00,31.9,0,0.0,""
Test,E20100010090,2016-09-11 13:03:00,31.9,0,0.0,""
Test,E20100010090,2016-09-11 13:06:00,31.9,0,0.0,""
Test,E20100010090,2016-09-11 13:09:00,32.0,0,0.0,""
Test,E20100010090,2016-09-11 13:12:00,32.0,0,0.0,""
Test,E20100010090,2016-09-11 13:15:00,32.0,0,0.0,""
Test,E20100010090,2016-09-11 13:18:00,32.1,0,0.0,""
Test,E20100010090,2016-09-11 13:21:00,32.1,0,0.0,""
Test,E20100010090,2016-09-11 13:24:00,32.1,0,0.0,""
Test,E20100010090,2016-09-11 13:27:00,32.1,0,0.0,""
Test,E20100010090,2016-09-11 13:30:00,32.1,0,0.0,""
Test,E20100010090,2016-09-11 13:33:00,32.1,0,0.0,""
Test,E20100010090,2016-09-11 13:36:00,32.1,0,0.0,""
Test,E20100010090,2016-09-11 13:39:00,32.1,0,0.0,""
Test,E20100010090,2016-09-11 13:42:00,32.1,0,0.0,""
Test,E20100010090,2016-09-11 13:45:00,32.1,0,0.0,""
Test,E20100010090,2016-09-11 13:48:00,32.2,0,0.0,""
Test,E20100010090,2016-09-11 13:51:00,32.2,0,0.0,""
Test,E20100010090,2016-09-11 13:54:00,32.1,0,0.0,""
Test,E20100010090,2016-09-11 13:57:00,32.2,0,0.0,""
Test,E20100010090,2016-09-11 14:00:00,32.1,0,0.0,""
Test,E20100010090,2016-09-11 14:03:00,32.2,0,0.0,""
Test,E20100010090,2016-09-11 14:06:00,32.2,0,0.0,""
Test,E20100010090,2016-09-11 14:09:00,32.2,0,0.0,""
Test,E20100010090,2016-09-11 14:12:00,32.2,0,0.0,""
Test,E20100010090,2016-09-11 14:15:00,32.2,0,0.0,""
Test,E20100010090,2016-09-11 14:18:00,32.2,0,0.0,""
Test,E20100010090,2016-09-11 14:21:00,32.3,0,0.0,""
Test,E20100010090,2016-09-11 14:24:00,32.2,0,0.0,""
Test,E20100010090,2016-09-11 14:27:00,32.2,0,0.0,""
Test,E20100010090,2016-09-11 14:30:00,32.2,0,0.0,""
Test,E20100010090,2016-09-11 14:33:00,32.2,0,0.0,""
Test,E20100010090,2016-09-11 14:36:00,32.2,0,0.0,""
Test,E20100010090,2016-09-11 14:39:00,32.2,0,0.0,""
Test,E20100010090,2016-09-11 14:42:00,32.2,0,0.0,""
Test,E20100010090,2016-09-11 14:45:00,32.2,0,0.0,""
Test,E20100010090,2016-09-11 14:48:00,32.1,0,0.0,""
Test,E20100010090,2016-09-11 14:51:00,32.1,0,0.0,""
Test,E20100010090,2016-09-11 14:54:00,32.2,0,0.0,""
Test,E20100010090,2016-09-11 14:57:00,32.1,0,0.0,""
Test,E20100010090,2016-09-11 15:00:00,32.1,0,0.0,""
Test,E20100010090,2016-09-11 15:03:00,32.1,0,0.0,""
Test,E20100010090,2016-09-11 15:06:00,32.1,0,0.0,""
Test,E20100010090,2016-09-11 15:09:00,32.1,0,0.0,""
Test,E20100010090,2016-09-11 15:12:00,32.1,0,0.0,""
Test,E20100010090,2016-09-11 15:15:00,32.1,0,0.0,""
Test,E20100010090,2016-09-11 15:18:00,32.1,0,0.0,""
Test,E20100010090,2016-09-11 15:21:00,32.1,0,0.0,""
Test,E20100010090,2016-09-11 15:24:00,32.1,0,0.0,""
Test,E20100010090,2016-09-11 15:27:00,32.0,0,0.0,""
Test,E20100010090,2016-09-11 15:30:00,32.0,0,0.0,""
Test,E20100010090,2016-09-11 15:33:00,32.0,0,0.0,""
Test,E20100010090,2016-09-11 15:36:00,32.0,0,0.0,""
Test,E20100010090,2016-09-11 15:39:00,32.0,0,0.0,""
Test,E20100010090,2016-09-11 15:42:00,32.0,0,0.0,""
Test,E20100010090,2016-09-11 15:45:00,31.9,0,0.0,""
Test,E20100010090,2016-09-11 15:48:00,31.9,0,0.0,""
Test,E20100010090,2016-09-11 15:51:00,31.9,0,0.0,""
Test,E20100010090,2016-09-11 15:54:00,31.9,0,0.0,""
Test,E20100010090,2016-09-11 15:57:00,31.9,0,0.0,""
Test,E20100010090,2016-09-11 16:00:00,31.9,0,0.0,""
Test,E20100010090,2016-09-11 16:03:00,31.9,0,0.0,""
Test,E20100010090,2016-09-11 16:06:00,31.8,0,0.0,""
Test,E20100010090,2016-09-11 16:09:00,31.8,0,0.0,""
Test,E20100010090,2016-09-11 16:12:00,31.8,0,0.0,""
Test,E20100010090,2016-09-11 16:15:00,31.8,0,0.0,""
Test,E20100010090,2016-09-11 16:18:00,31.8,0,0.0,""
Test,E20100010090,2016-09-11 16:21:00,31.8,0,0.0,""
Test,E20100010090,2016-09-11 16:24:00,31.7,0,0.0,""
Test,E20100010090,2016-09-11 16:27:00,31.7,0,0.0,""
Test,E20100010090,2016-09-11 16:30:00,31.7,0,0.0,""
Test,E20100010090,2016-09-11 16:33:00,31.8,0,0.0,""
Test,E20100010090,2016-09-11 16:36:00,31.7,0,0.0,""
Test,E20100010090,2016-09-11 16:39:00,31.7,0,0.0,""
Test,E20100010090,2016-09-11 16:42:00,31.7,0,0.0,""
Test,E20100010090,2016-09-11 16:45:00,31.6,0,0.0,""
Test,E20100010090,2016-09-11 16:48:00,31.6,0,0.0,""
Test,E20100010090,2016-09-11 16:54:00,31.6,0,0.0,""
Test,E20100010090,2016-09-11 16:57:00,31.6,0,0.0,""
Test,E20100010090,2016-09-11 17:00:00,31.6,0,0.0,""
Test,E20100010090,2016-09-11 17:03:00,31.6,0,0.0,""
Test,E20100010090,2016-09-11 17:06:00,31.6,0,0.0,""
Test,E20100010090,2016-09-11 17:09:00,31.6,0,0.0,""
Test,E20100010090,2016-09-11 17:12:00,31.5,0,0.0,""
Test,E20100010090,2016-09-11 17:15:00,31.5,0,0.0,""
Test,E20100010090,2016-09-11 17:18:00,31.4,0,0.0,""
Test,E20100010090,2016-09-11 17:21:00,31.5,0,0.0,""
Test,E20100010090,2016-09-11 17:24:00,31.4,0,0.0,""
Test,E20100010090,2016-09-11 17:27:00,31.4,0,0.0,""
Test,E20100010090,2016-09-11 17:30:00,31.4,0,0.0,""
Test,E20100010090,2016-09-11 17:33:00,31.4,0,0.0,""
Test,E20100010090,2016-09-11 17:36:00,31.4,0,0.0,""
Test,E20100010090,2016-09-11 17:39:00,31.4,0,0.0,""
Test,E20100010090,2016-09-11 17:42:00,31.4,0,0.0,""
Test,E20100010090,2016-09-11 17:45:00,31.4,0,0.0,""
Test,E20100010090,2016-09-11 17:48:00,31.4,0,0.0,""
Test,E20100010090,2016-09-11 17:51:00,31.3,0,0.0,""
Test,E20100010090,2016-09-11 17:54:00,31.4,0,0.0,""
Test,E20100010090,2016-09-11 17:57:00,31.3,0,0.0,""
Test,E20100010090,2016-09-11 18:00:00,31.3,0,0.0,""
Test,E20100010090,2016-09-11 18:03:00,31.3,0,0.0,""
Test,E20100010090,2016-09-11 18:06:00,31.3,0,0.0,""
Test,E20100010090,2016-09-11 18:09:00,31.3,0,0.0,""
Test,E20100010090,2016-09-11 18:12:00,31.3,0,0.0,""
Test,E20100010090,2016-09-11 18:15:00,31.3,0,0.0,""
Test,E20100010090,2016-09-11 18:18:00,31.3,0,0.0,""
Test,E20100010090,2016-09-11 18:21:00,31.3,0,0.0,""
Test,E20100010090,2016-09-11 18:24:00,31.3,0,0.0,""
Test,E20100010090,2016-09-11 18:27:00,31.2,0,0.0,""
Test,E20100010090,2016-09-11 18:30:00,31.2,0,0.0,""
Test,E20100010090,2016-09-11 18:33:00,31.2,0,0.0,""
Test,E20100010090,2016-09-11 18:36:00,31.2,0,0.0,""
Test,E20100010090,2016-09-11 18:39:00,31.2,0,0.0,""
Test,E20100010090,2016-09-11 18:42:00,31.2,0,0.0,""
Test,E20100010090,2016-09-11 18:45:00,31.1,0,0.0,""
Test,E20100010090,2016-09-11 18:48:00,31.1,0,0.0,""
Test,E20100010090,2016-09-11 18:51:00,31.1,0,0.0,""
Test,E20100010090,2016-09-11 18:54:00,31.1,0,0.0,""
Test,E20100010090,2016-09-11 18:57:00,31.1,0,0.0,""
Test,E20100010090,2016-09-11 19:00:00,31.1,0,0.0,""
Test,E20100010090,2016-09-11 19:03:00,31.1,0,0.0,""
Test,E20100010090,2016-09-11 19:06:00,31.1,0,0.0,""
Test,E20100010090,2016-09-11 19:09:00,31.1,0,0.0,""
Test,E20100010090,2016-09-11 19:12:00,31.1,0,0.0,""
Test,E20100010090,2016-09-11 19:15:00,31.0,0,0.0,""
Test,E20100010090,2016-09-11 19:18:00,31.0,0,0.0,""
Test,E20100010090,2016-09-11 19:21:00,31.0,0,0.0,""
Test,E20100010090,2016-09-11 19:24:00,30.9,0,0.0,""
Test,E20100010090,2016-09-11 19:27:00,30.9,0,0.0,""
Test,E20100010090,2016-09-11 19:30:00,31.0,0,0.0,""
Test,E20100010090,2016-09-11 19:33:00,31.0,0,0.0,""
Test,E20100010090,2016-09-11 19:36:00,30.9,0,0.0,""
Test,E20100010090,2016-09-11 19:39:00,30.9,0,0.0,""
Test,E20100010090,2016-09-11 19:42:00,30.9,0,0.0,""
Test,E20100010090,2016-09-11 19:45:00,30.9,0,0.0,""
Test,E20100010090,2016-09-11 19:48:00,30.9,0,0.0,""
Test,E20100010090,2016-09-11 19:51:00,30.9,0,0.0,""
Test,E20100010090,2016-09-11 19:54:00,30.9,0,0.0,""
Test,E20100010090,2016-09-11 19:57:00,30.9,0,0.0,""
Test,E20100010090,2016-09-11 20:00:00,30.8,0,0.0,""
Test,E20100010090,2016-09-11 20:03:00,30.8,0,0.0,""
Test,E20100010090,2016-09-11 20:06:00,30.8,0,0.0,""
Test,E20100010090,2016-09-11 20:09:00,30.8,0,0.0,""
Test,E20100010090,2016-09-11 20:12:00,30.8,0,0.0,""
Test,E20100010090,2016-09-11 20:15:00,30.8,0,0.0,""
Test,E20100010090,2016-09-11 20:18:00,30.8,0,0.0,""
Test,E20100010090,2016-09-11 20:21:00,30.8,0,0.0,""
Test,E20100010090,2016-09-11 20:24:00,30.8,0,0.0,""
Test,E20100010090,2016-09-11 20:27:00,30.8,0,0.0,""
Test,E20100010090,2016-09-11 20:30:00,30.8,0,0.0,""
Test,E20100010090,2016-09-11 20:33:00,30.8,0,0.0,""
Test,E20100010090,2016-09-11 20:36:00,30.8,0,0.0,""
Test,E20100010090,2016-09-11 20:39:00,30.7,0,0.0,""
Test,E20100010090,2016-09-11 20:42:00,30.8,0,0.0,""
Test,E20100010090,2016-09-11 20:45:00,30.8,0,0.0,""
Test,E20100010090,2016-09-11 20:48:00,30.7,0,0.0,""
Test,E20100010090,2016-09-11 20:51:00,30.7,0,0.0,""
Test,E20100010090,2016-09-11 20:54:00,30.7,0,0.0,""
Test,E20100010090,2016-09-11 20:57:00,30.7,0,0.0,""
Test,E20100010090,2016-09-11 21:00:00,30.6,0,0.0,""
Test,E20100010090,2016-09-11 21:03:00,30.6,0,0.0,""
Test,E20100010090,2016-09-11 21:06:00,30.6,0,0.0,""
Test,E20100010090,2016-09-11 21:09:00,30.6,0,0.0,""
Test,E20100010090,2016-09-11 21:12:00,30.6,0,0.0,""
Test,E20100010090,2016-09-11 21:15:00,30.6,0,0.0,""
Test,E20100010090,2016-09-11 21:18:00,30.6,0,0.0,""
Test,E20100010090,2016-09-11 21:21:00,30.6,0,0.0,""
Test,E20100010090,2016-09-11 21:24:00,30.6,0,0.0,""
Test,E20100010090,2016-09-11 21:27:00,30.6,0,0.0,""
Test,E20100010090,2016-09-11 21:30:00,30.6,0,0.0,""
Test,E20100010090,2016-09-11 21:33:00,30.6,0,0.0,""
Test,E20100010090,2016-09-11 21:36:00,30.5,0,0.0,""
Test,E20100010090,2016-09-11 21:39:00,30.6,0,0.0,""
Test,E20100010090,2016-09-11 21:42:00,30.6,0,0.0,""
Test,E20100010090,2016-09-11 21:45:00,30.5,0,0.0,""
Test,E20100010090,2016-09-11 21:48:00,30.5,0,0.0,""
Test,E20100010090,2016-09-11 21:51:00,30.5,0,0.0,""
Test,E20100010090,2016-09-11 21:54:00,30.5,0,0.0,""
Test,E20100010090,2016-09-11 21:57:00,30.4,0,0.0,""
Test,E20100010090,2016-09-11 22:00:00,30.5,0,0.0,""
Test,E20100010090,2016-09-11 22:03:00,30.4,0,0.0,""
Test,E20100010090,2016-09-11 22:06:00,30.4,0,0.0,""
Test,E20100010090,2016-09-11 22:09:00,30.4,0,0.0,""
Test,E20100010090,2016-09-11 22:12:00,30.4,0,0.0,""
Test,E20100010090,2016-09-11 22:15:00,30.4,0,0.0,""
Test,E20100010090,2016-09-11 22:18:00,30.4,0,0.0,""
Test,E20100010090,2016-09-11 22:21:00,30.4,0,0.0,""
Test,E20100010090,2016-09-11 22:24:00,30.4,0,0.0,""
Test,E20100010090,2016-09-11 22:27:00,30.4,0,0.0,""
Test,E20100010090,2016-09-11 22:30:00,30.4,0,0.0,""
Test,E20100010090,2016-09-11 22:33:00,30.4,0,0.0,""
Test,E20100010090,2016-09-11 22:36:00,30.4,0,0.0,""
Test,E20100010090,2016-09-11 22:39:00,30.4,0,0.0,""
Test,E20100010090,2016-09-11 22:42:00,30.4,0,0.0,""
Test,E20100010090,2016-09-11 22:45:00,30.4,0,0.0,""
Test,E20100010090,2016-09-11 22:48:00,30.4,0,0.0,""
Test,E20100010090,2016-09-11 22:51:00,30.3,0,0.0,""
Test,E20100010090,2016-09-11 22:54:00,30.3,0,0.0,""